FLOCK 4Q 18

导读 | 星芒AI

FLOCK 4Q 18 是由 Planet Labs 运营的 Dove 卫星之一,属于其“Flock”系列地球观测卫星。该卫星主要用于高分辨率光学成像,支持全球范围内的每日重访能力。它以低成本、高效率著称,广泛应用于环境监测、农业管理、灾害响应等领域。FLOCK 4Q 18 通常与其他 Dove 卫星协同工作,提供快速、频繁的地球影像数据,助力科学研究和商业应用。

基本信息
目录编号:
58305
目录名称:
FLOCK 4Q 18
国际标识:
2023-174BB
轨道中心:
EARTH
卫星名称:
FLOCK 4Q 18
卫星全名:
--
卫星状态:
已陨落 最后检测时间 2025-01-11
发射日期:
2023-11-11 UTC
国别 :
美国 (US)
星等 :
--
轨道信息
数据来源 国际轨道数据
星历时间: 2025-01-05T20:36:41+0800
轨道信息已过期344天
半长轴: 6585.048km
偏心率: 0.0007726
轨道倾角: 97.401°
近地点辐角 278.127°
升交点赤经 90.997°
平近点角 81.914°
近地点: 201.825km
远地点: 212.001km
周期: 88.634分钟
每日圈数: 16.246673
详细信息
使用方式:
暂无